Location: Hawaiian Village Mobile Home Park
(32.8359°N, 116.9792°W)
Time: 03:09:16
(UTC+00:00)

ADEOS - Pass Details

Date: 09 December 2021
Orbit: 792 x 795 km, 98.9° (Epoch: 23 January)

Event Time Altitude Azimuth Distance (km) Brightness Sun altitude
Rises 13:47:17 0° 4° (N) 3,299 6.6 -10.8°
Reaches altitude 10° 13:49:42 10° 358° (N) 2,366 5.8 -10.3°
Maximum altitude 13:54:37 44° 288° (WNW) 1,095 3.9 -9.4°
Drops below altitude 10° 13:59:31 10° 218° (SW) 2,351 5.9 -8.4°
Sets 14:01:55 0° 211° (SSW) 3,276 6.7 -7.9°
